Terug naar catalogus

CZ-6A DEB

ActiefPO
NORAD 54968·DEBRIS·🇨🇳 China

Gelanceerd Nov 11, 2022 vanaf Taiyuan Satellite Launch Center

Loading…

Volgende Passages (komende 24 uur)

TLE

VersSource: Space-Track

Epoch: Sep 14, 2026, 11:10 UTC

1 54968U 22151TH  26257.46574065  .00006899  00000-0  98932-3 0  9998
2 54968  98.6275 331.3409 0064995   0.1680 359.9538 14.75422589203488

Volg CZ-6A DEB in realtime met AllMySat

Download on the App Store